Time,TemperatureF,DewpointF,PressureIn,WindDirection,WindDirectionDegrees,WindSpeedMPH,WindSpeedGustMPH,Humidity,HourlyPrecipIn,Conditions,Clouds,dailyrainin,SoftwareType,DateUTC
2013-09-30 00:00:00,53.9,53.3,30.04,East,86,0.0,0.0,98,0.00,,---,0.01,VWS V14.01,2013-09-30 04:00:00,
2013-09-30 00:01:00,53.1,52.8,30.04,NW,311,1.0,3.0,99,0.00,,---,0.00,VWS V14.01,2013-09-30 04:01:00,
2013-09-30 00:06:00,52.8,52.5,30.04,WNW,300,1.0,4.0,99,0.00,,---,0.00,VWS V14.01,2013-09-30 04:06:00,
2013-09-30 00:11:00,52.6,52.3,30.04,WNW,300,2.0,4.0,99,0.00,,---,0.00,VWS V14.01,2013-09-30 04:11:00,
2013-09-30 00:16:00,52.6,52.3,30.03,WNW,300,1.0,4.0,99,0.00,,---,0.00,VWS V14.01,2013-09-30 04:16:00,
2013-09-30 00:21:00,52.3,52.0,30.03,WNW,300,1.0,4.0,99,0.00,,---,0.00,VWS V14.01,2013-09-30 04:21:00,
2013-09-30 00:26:00,52.3,52.0,30.03,WNW,300,2.0,4.0,99,0.00,,---,0.00,VWS V14.01,2013-09-30 04:26:00,
2013-09-30 00:30:00,53.5,53.2,30.04,East,86,0.0,0.0,99,0.00,,---,0.01,VWS V14.01,2013-09-30 04:30:00,
2013-09-30 00:31:00,52.3,52.0,30.03,WNW,300,1.0,2.0,99,0.00,,---,0.00,VWS V14.01,2013-09-30 04:31:00,
2013-09-30 00:36:00,52.2,51.9,30.03,West,281,3.0,4.0,99,0.00,,---,0.00,VWS V14.01,2013-09-30 04:36:00,
2013-09-30 00:41:00,52.0,51.7,30.03,WNW,298,3.0,4.0,99,0.00,,---,0.00,VWS V14.01,2013-09-30 04:41:00,
2013-09-30 00:46:00,51.7,51.4,30.04,WNW,299,2.0,4.0,99,0.00,,---,0.00,VWS V14.01,2013-09-30 04:46:00,
2013-09-30 00:51:00,51.4,51.1,30.04,WNW,299,1.0,4.0,99,0.00,,---,0.00,VWS V14.01,2013-09-30 04:51:00,
2013-09-30 00:56:00,51.3,51.0,30.04,WNW,299,0.0,4.0,99,0.00,,---,0.00,VWS V14.01,2013-09-30 04:56:00,
2013-09-30 01:00:00,53.1,52.8,30.04,NW,321,1.0,3.0,99,0.00,,---,0.01,VWS V14.01,2013-09-30 05:00:00,
2013-09-30 01:01:00,51.3,51.0,30.03,WNW,299,2.0,3.0,99,0.00,,---,0.00,VWS V14.01,2013-09-30 05:01:00,
2013-09-30 01:06:00,51.4,51.1,30.03,WNW,299,2.0,3.0,99,0.00,,---,0.00,VWS V14.01,2013-09-30 05:06:00,
2013-09-30 01:11:00,51.4,51.1,30.03,WNW,299,0.0,3.0,99,0.00,,---,0.00,VWS V14.01,2013-09-30 05:11:00,
2013-09-30 01:16:00,51.4,51.1,30.03,WNW,299,1.0,4.0,99,0.01,,---,0.01,VWS V14.01,2013-09-30 05:16:00,
2013-09-30 01:21:00,51.4,51.1,30.03,WNW,298,1.0,4.0,99,0.01,,---,0.01,VWS V14.01,2013-09-30 05:21:00,
2013-09-30 01:26:00,51.4,51.1,30.03,WNW,298,2.0,4.0,99,0.01,,---,0.01,VWS V14.01,2013-09-30 05:26:00,
2013-09-30 01:30:00,52.3,52.0,30.03,WNW,300,2.0,4.0,99,0.00,,---,0.00,VWS V14.01,2013-09-30 05:30:00,
2013-09-30 01:31:00,51.4,51.1,30.03,WNW,298,1.0,3.0,99,0.01,,---,0.01,VWS V14.01,2013-09-30 05:31:00,
2013-09-30 01:36:00,51.3,51.0,30.03,WNW,299,1.0,3.0,99,0.01,,---,0.01,VWS V14.01,2013-09-30 05:36:00,
2013-09-30 01:41:00,51.1,50.8,30.03,WNW,298,0.0,3.0,99,0.01,,---,0.01,VWS V14.01,2013-09-30 05:41:00,
2013-09-30 01:46:00,51.1,50.8,30.03,WNW,298,0.0,3.0,99,0.01,,---,0.01,VWS V14.01,2013-09-30 05:46:00,
2013-09-30 01:51:00,51.1,50.8,30.03,WNW,299,0.0,3.0,99,0.01,,---,0.01,VWS V14.01,2013-09-30 05:51:00,
2013-09-30 01:56:00,51.1,50.8,30.03,WNW,299,0.0,3.0,99,0.01,,---,0.01,VWS V14.01,2013-09-30 05:56:00,
2013-09-30 02:00:00,51.3,51.0,30.03,WNW,299,3.0,4.0,99,0.00,,---,0.00,VWS V14.01,2013-09-30 06:00:00,
2013-09-30 02:01:00,51.3,51.0,30.02,WNW,299,0.0,1.0,99,0.01,,---,0.01,VWS V14.01,2013-09-30 06:01:00,
2013-09-30 02:06:00,51.3,51.0,30.02,WNW,299,0.0,3.0,99,0.01,,---,0.01,VWS V14.01,2013-09-30 06:06:00,
2013-09-30 02:11:00,51.3,51.0,30.02,WNW,299,0.0,3.0,99,0.01,,---,0.01,VWS V14.01,2013-09-30 06:11:00,
2013-09-30 02:16:00,51.1,50.8,30.01,WNW,299,0.0,4.0,99,0.01,,---,0.01,VWS V14.01,2013-09-30 06:16:00,
2013-09-30 02:21:00,51.1,50.8,30.01,NNW,335,3.0,4.0,99,0.01,,---,0.01,VWS V14.01,2013-09-30 06:21:00,
2013-09-30 02:26:00,51.0,50.7,30.01,North,351,2.0,4.0,99,0.01,,---,0.01,VWS V14.01,2013-09-30 06:26:00,
2013-09-30 02:30:00,51.4,51.1,30.03,WNW,299,2.0,4.0,99,0.01,,---,0.01,VWS V14.01,2013-09-30 06:30:00,
2013-09-30 02:31:00,51.0,50.7,30.01,NNW,334,3.0,5.0,99,0.00,,---,0.01,VWS V14.01,2013-09-30 06:31:00,
2013-09-30 02:36:00,51.1,50.8,30.01,NNW,334,0.0,5.0,99,0.00,,---,0.01,VWS V14.01,2013-09-30 06:36:00,
2013-09-30 02:41:00,51.1,50.8,30.01,NNW,334,1.0,5.0,99,0.00,,---,0.01,VWS V14.01,2013-09-30 06:41:00,
2013-09-30 02:46:00,51.0,50.7,30.01,NNW,334,0.0,5.0,99,0.00,,---,0.01,VWS V14.01,2013-09-30 06:46:00,
2013-09-30 02:51:00,50.8,50.5,30.01,NNW,334,1.0,5.0,99,0.00,,---,0.01,VWS V14.01,2013-09-30 06:51:00,
2013-09-30 02:56:00,50.7,50.4,30.01,NNW,334,0.0,5.0,99,0.00,,---,0.01,VWS V14.01,2013-09-30 06:56:00,
2013-09-30 03:00:00,51.3,51.0,30.02,WNW,299,0.0,3.0,99,0.01,,---,0.01,VWS V14.01,2013-09-30 07:00:00,
2013-09-30 03:01:00,50.7,50.4,30.00,NNW,334,0.0,5.0,99,0.00,,---,0.01,VWS V14.01,2013-09-30 07:01:00,
2013-09-30 03:06:00,50.8,50.5,30.00,NW,306,1.0,3.0,99,0.00,,---,0.01,VWS V14.01,2013-09-30 07:06:00,
2013-09-30 03:11:00,50.7,50.4,30.00,NW,306,0.0,3.0,99,0.00,,---,0.01,VWS V14.01,2013-09-30 07:11:00,
2013-09-30 03:16:00,50.5,50.2,30.00,NW,306,3.0,3.0,99,0.00,,---,0.01,VWS V14.01,2013-09-30 07:16:00,
2013-09-30 03:21:00,50.4,50.1,30.00,NW,304,0.0,4.0,99,0.00,,---,0.01,VWS V14.01,2013-09-30 07:21:00,
2013-09-30 03:26:00,50.4,50.1,30.00,NW,304,0.0,4.0,99,0.00,,---,0.01,VWS V14.01,2013-09-30 07:26:00,
2013-09-30 03:30:00,51.0,50.7,30.01,North,351,4.0,4.0,99,0.01,,---,0.01,VWS V14.01,2013-09-30 07:30:00,
2013-09-30 03:31:00,50.2,49.9,30.00,NW,304,2.0,3.0,99,0.00,,---,0.01,VWS V14.01,2013-09-30 07:31:00,
2013-09-30 03:36:00,49.9,49.6,30.00,NW,304,1.0,3.0,99,0.00,,---,0.01,VWS V14.01,2013-09-30 07:36:00,
2013-09-30 03:41:00,49.8,49.5,30.00,NW,304,0.0,3.0,99,0.00,,---,0.01,VWS V14.01,2013-09-30 07:41:00,
2013-09-30 03:46:00,49.5,49.2,30.01,NW,304,0.0,3.0,99,0.00,,---,0.01,VWS V14.01,2013-09-30 07:46:00,
2013-09-30 03:51:00,49.4,49.1,30.01,NW,304,0.0,3.0,99,0.00,,---,0.01,VWS V14.01,2013-09-30 07:51:00,
2013-09-30 03:56:00,49.4,49.1,30.01,NW,304,0.0,3.0,99,0.00,,---,0.01,VWS V14.01,2013-09-30 07:56:00,
2013-09-30 04:00:00,50.7,50.4,30.00,NNW,334,0.0,5.0,99,0.00,,---,0.01,VWS V14.01,2013-09-30 08:00:00,
2013-09-30 04:01:00,49.4,49.4,30.01,NW,304,2.0,2.0,100,0.00,,---,0.01,VWS V14.01,2013-09-30 08:01:00,
2013-09-30 04:06:00,49.6,49.6,30.01,NW,304,2.0,4.0,100,0.00,,---,0.01,VWS V14.01,2013-09-30 08:06:00,
2013-09-30 04:11:00,50.1,50.1,30.01,NW,304,1.0,4.0,100,0.00,,---,0.01,VWS V14.01,2013-09-30 08:11:00,
2013-09-30 04:16:00,50.1,50.1,30.01,NW,304,1.0,4.0,100,0.00,,---,0.01,VWS V14.01,2013-09-30 08:16:00,
2013-09-30 04:21:00,50.1,50.1,30.01,NW,304,1.0,4.0,100,0.00,,---,0.01,VWS V14.01,2013-09-30 08:21:00,
2013-09-30 04:26:00,50.1,50.1,30.01,NW,304,2.0,4.0,100,0.00,,---,0.01,VWS V14.01,2013-09-30 08:26:00,
2013-09-30 04:30:00,50.2,49.9,30.00,NW,304,2.0,4.0,99,0.00,,---,0.01,VWS V14.01,2013-09-30 08:30:00,
2013-09-30 04:31:00,49.9,49.9,30.01,NW,306,2.0,4.0,100,0.00,,---,0.01,VWS V14.01,2013-09-30 08:31:00,
2013-09-30 04:36:00,49.9,49.9,30.01,North,351,0.0,4.0,100,0.00,,---,0.01,VWS V14.01,2013-09-30 08:36:00,
2013-09-30 04:41:00,49.8,49.8,30.01,North,349,2.0,4.0,100,0.00,,---,0.01,VWS V14.01,2013-09-30 08:41:00,
2013-09-30 04:46:00,49.9,49.9,30.00,NNW,342,2.0,4.0,100,0.00,,---,0.01,VWS V14.01,2013-09-30 08:46:00,
2013-09-30 04:51:00,49.9,49.9,30.00,NNW,340,1.0,5.0,100,0.00,,---,0.01,VWS V14.01,2013-09-30 08:51:00,
2013-09-30 04:56:00,49.9,49.9,30.00,WNW,302,1.0,5.0,100,0.00,,---,0.01,VWS V14.01,2013-09-30 08:56:00,
2013-09-30 05:00:00,49.2,48.9,30.01,NW,304,0.0,3.0,99,0.00,,---,0.01,VWS V14.01,2013-09-30 09:00:00,
2013-09-30 05:01:00,49.8,49.8,30.00,WNW,302,0.0,2.0,100,0.00,,---,0.01,VWS V14.01,2013-09-30 09:01:00,
2013-09-30 05:06:00,49.4,49.4,30.00,WNW,302,0.0,3.0,100,0.00,,---,0.01,VWS V14.01,2013-09-30 09:06:00,
2013-09-30 05:11:00,49.1,48.8,30.00,WNW,302,1.0,3.0,99,0.00,,---,0.01,VWS V14.01,2013-09-30 09:11:00,
2013-09-30 05:16:00,48.8,48.8,30.00,WNW,302,2.0,3.0,100,0.00,,---,0.01,VWS V14.01,2013-09-30 09:16:00,
2013-09-30 05:21:00,48.6,48.6,30.00,WNW,296,1.0,4.0,100,0.00,,---,0.01,VWS V14.01,2013-09-30 09:21:00,
2013-09-30 05:26:00,48.5,48.5,30.00,WNW,296,1.0,4.0,100,0.00,,---,0.01,VWS V14.01,2013-09-30 09:26:00,
2013-09-30 05:30:00,49.9,49.9,30.01,NW,306,2.0,4.0,100,0.00,,---,0.01,VWS V14.01,2013-09-30 09:30:00,
2013-09-30 05:31:00,48.2,48.2,30.00,WNW,288,2.0,4.0,100,0.00,,---,0.01,VWS V14.01,2013-09-30 09:31:00,
2013-09-30 05:36:00,47.7,47.7,30.00,WNW,287,2.0,5.0,100,0.00,,---,0.01,VWS V14.01,2013-09-30 09:36:00,
2013-09-30 05:41:00,47.4,47.4,30.00,NW,325,2.0,5.0,100,0.00,,---,0.01,VWS V14.01,2013-09-30 09:41:00,
2013-09-30 05:46:00,47.3,47.3,30.01,NW,325,2.0,5.0,100,0.00,,---,0.01,VWS V14.01,2013-09-30 09:46:00,
2013-09-30 05:51:00,47.3,47.3,30.01,NW,325,0.0,5.0,100,0.00,,---,0.01,VWS V14.01,2013-09-30 09:51:00,
2013-09-30 05:56:00,47.3,47.3,30.01,NW,325,0.0,5.0,100,0.00,,---,0.01,VWS V14.01,2013-09-30 09:56:00,
2013-09-30 06:00:00,47.4,47.4,30.01,NW,325,0.0,2.0,100,0.00,,---,0.01,VWS V14.01,2013-09-30 10:00:00,
2013-09-30 06:05:00,47.4,47.4,30.01,NW,325,0.0,3.0,100,0.00,,---,0.01,VWS V14.01,2013-09-30 10:05:00,
2013-09-30 06:10:00,47.6,47.6,30.01,NW,325,0.0,3.0,100,0.00,,---,0.01,VWS V14.01,2013-09-30 10:10:00,
2013-09-30 06:15:00,47.9,47.9,30.00,NW,325,0.0,3.0,100,0.00,,---,0.01,VWS V14.01,2013-09-30 10:15:00,
2013-09-30 06:20:00,47.9,47.9,30.00,NW,325,0.0,3.0,100,0.00,,---,0.01,VWS V14.01,2013-09-30 10:20:00,
2013-09-30 06:25:00,47.9,47.9,30.00,NW,325,0.0,3.0,100,0.00,,---,0.01,VWS V14.01,2013-09-30 10:25:00,
2013-09-30 06:30:00,47.6,47.6,30.00,NW,325,0.0,0.0,100,0.00,,---,0.01,VWS V14.01,2013-09-30 10:30:00,
2013-09-30 06:35:00,47.6,47.6,30.00,NW,325,0.0,0.0,100,0.00,,---,0.01,VWS V14.01,2013-09-30 10:35:00,
2013-09-30 06:40:00,47.6,47.6,30.00,NW,325,0.0,0.0,100,0.00,,---,0.01,VWS V14.01,2013-09-30 10:40:00,
2013-09-30 06:45:00,47.6,47.6,30.01,NW,325,0.0,2.0,100,0.00,,---,0.01,VWS V14.01,2013-09-30 10:45:00,
2013-09-30 06:50:00,47.6,47.6,30.01,NNW,333,1.0,4.0,100,0.00,,---,0.01,VWS V14.01,2013-09-30 10:50:00,
2013-09-30 06:55:00,47.7,47.7,30.01,NW,321,1.0,4.0,100,0.00,,---,0.01,VWS V14.01,2013-09-30 10:55:00,
2013-09-30 07:00:00,47.7,47.7,30.01,NW,321,2.0,3.0,100,0.00,,---,0.01,VWS V14.01,2013-09-30 11:00:00,
2013-09-30 07:05:00,47.9,47.9,30.01,WNW,296,1.0,3.0,100,0.00,,---,0.01,VWS V14.01,2013-09-30 11:05:00,
2013-09-30 07:10:00,48.0,48.0,30.01,WNW,290,0.0,4.0,100,0.00,,---,0.01,VWS V14.01,2013-09-30 11:10:00,
2013-09-30 07:15:00,47.9,47.9,30.00,WNW,287,3.0,5.0,100,0.00,,---,0.01,VWS V14.01,2013-09-30 11:15:00,
2013-09-30 07:20:00,47.9,47.9,30.00,WNW,286,1.0,5.0,100,0.00,,---,0.01,VWS V14.01,2013-09-30 11:20:00,
2013-09-30 07:25:00,48.0,48.0,30.00,NNW,331,3.0,5.0,100,0.00,,---,0.01,VWS V14.01,2013-09-30 11:25:00,
2013-09-30 07:30:00,47.9,47.9,30.01,NNW,331,0.0,0.0,100,0.00,,---,0.01,VWS V14.01,2013-09-30 11:30:00,
2013-09-30 07:35:00,48.0,48.0,30.01,NNW,331,1.0,2.0,100,0.00,,---,0.01,VWS V14.01,2013-09-30 11:35:00,
2013-09-30 07:40:00,48.0,48.0,30.01,NNW,331,0.0,2.0,100,0.00,,---,0.01,VWS V14.01,2013-09-30 11:40:00,
2013-09-30 07:45:00,48.2,48.2,30.02,NNW,331,0.0,2.0,100,0.00,,---,0.01,VWS V14.01,2013-09-30 11:45:00,
2013-09-30 07:50:00,48.3,48.3,30.02,NNW,331,0.0,2.0,100,0.00,,---,0.01,VWS V14.01,2013-09-30 11:50:00,
2013-09-30 07:55:00,48.5,48.5,30.02,NNW,331,0.0,2.0,100,0.00,,---,0.01,VWS V14.01,2013-09-30 11:55:00,
2013-09-30 08:00:00,48.5,48.5,30.01,NNW,331,0.0,1.0,100,0.00,,---,0.01,VWS V14.01,2013-09-30 12:00:00,
2013-09-30 08:05:00,48.6,48.6,30.01,NNW,331,0.0,2.0,100,0.00,,---,0.01,VWS V14.01,2013-09-30 12:05:00,
2013-09-30 08:10:00,48.8,48.8,30.01,NNW,331,0.0,2.0,100,0.00,,---,0.01,VWS V14.01,2013-09-30 12:10:00,
2013-09-30 08:15:00,48.9,48.9,30.02,NNW,331,0.0,2.0,100,0.00,,---,0.01,VWS V14.01,2013-09-30 12:15:00,
2013-09-30 08:20:00,49.1,49.1,30.02,NNW,331,0.0,2.0,100,0.00,,---,0.01,VWS V14.01,2013-09-30 12:20:00,
2013-09-30 08:25:00,49.1,49.1,30.02,NNW,331,0.0,2.0,100,0.00,,---,0.01,VWS V14.01,2013-09-30 12:25:00,
2013-09-30 08:30:00,49.4,49.4,30.01,NNW,331,1.0,1.0,100,0.00,,---,0.01,VWS V14.01,2013-09-30 12:30:00,
2013-09-30 08:35:00,49.5,49.5,30.01,NNW,331,0.0,2.0,100,0.00,,---,0.01,VWS V14.01,2013-09-30 12:35:00,
2013-09-30 08:40:00,49.8,49.8,30.01,NNW,331,0.0,3.0,100,0.00,,---,0.01,VWS V14.01,2013-09-30 12:40:00,
2013-09-30 08:45:00,50.4,50.4,30.00,WNW,291,0.0,4.0,100,0.00,,---,0.01,VWS V14.01,2013-09-30 12:45:00,
2013-09-30 08:50:00,51.0,51.0,30.00,WNW,288,3.0,4.0,100,0.00,,---,0.01,VWS V14.01,2013-09-30 12:50:00,
2013-09-30 08:55:00,51.4,51.4,30.00,NW,322,3.0,4.0,100,0.00,,---,0.01,VWS V14.01,2013-09-30 12:55:00,
2013-09-30 09:00:00,51.6,51.6,29.99,WNW,292,3.0,4.0,100,0.00,,---,0.01,VWS V14.01,2013-09-30 13:00:00,
2013-09-30 09:05:00,51.7,51.7,29.99,NW,326,4.0,4.0,100,0.00,,---,0.01,VWS V14.01,2013-09-30 13:05:00,
2013-09-30 09:10:00,52.0,52.0,29.99,NNW,333,1.0,4.0,100,0.00,,---,0.01,VWS V14.01,2013-09-30 13:10:00,
2013-09-30 09:15:00,52.2,52.2,29.99,NW,317,1.0,4.0,100,0.00,,---,0.01,VWS V14.01,2013-09-30 13:15:00,
2013-09-30 09:20:00,52.2,52.2,29.99,West,280,3.0,5.0,100,0.00,,---,0.01,VWS V14.01,2013-09-30 13:20:00,
2013-09-30 09:25:00,52.3,52.3,29.99,WNW,298,2.0,6.0,100,0.00,,---,0.01,VWS V14.01,2013-09-30 13:25:00,
2013-09-30 09:30:00,52.3,52.3,29.99,WNW,296,2.0,3.0,100,0.00,,---,0.01,VWS V14.01,2013-09-30 13:30:00,
2013-09-30 09:35:00,52.5,52.5,29.99,NW,323,1.0,4.0,100,0.00,,---,0.01,VWS V14.01,2013-09-30 13:35:00,
2013-09-30 09:40:00,52.5,52.5,29.99,NNW,331,3.0,5.0,100,0.00,,---,0.01,VWS V14.01,2013-09-30 13:40:00,
2013-09-30 09:45:00,52.3,52.3,29.98,NW,323,0.0,6.0,100,0.00,,---,0.01,VWS V14.01,2013-09-30 13:45:00,
2013-09-30 09:50:00,52.6,52.6,29.98,WNW,283,1.0,6.0,100,0.00,,---,0.01,VWS V14.01,2013-09-30 13:50:00,
2013-09-30 09:55:00,52.8,52.8,29.98,NW,325,2.0,6.0,100,0.00,,---,0.01,VWS V14.01,2013-09-30 13:55:00,
2013-09-30 10:00:00,52.8,52.8,29.99,West,280,1.0,3.0,100,0.00,,---,0.01,VWS V14.01,2013-09-30 14:00:00,
2013-09-30 10:05:00,52.8,52.8,29.99,WNW,298,1.0,4.0,100,0.00,,---,0.01,VWS V14.01,2013-09-30 14:05:00,
2013-09-30 10:10:00,53.1,53.1,29.99,NW,323,0.0,6.0,100,0.00,,---,0.01,VWS V14.01,2013-09-30 14:10:00,
2013-09-30 10:15:00,53.2,53.2,29.99,NNW,335,4.0,6.0,100,0.00,,---,0.01,VWS V14.01,2013-09-30 14:15:00,
2013-09-30 10:20:00,53.1,53.1,29.99,NNW,333,4.0,6.0,100,0.00,,---,0.01,VWS V14.01,2013-09-30 14:20:00,
2013-09-30 10:25:00,53.3,53.3,29.99,NW,304,4.0,6.0,100,0.00,,---,0.01,VWS V14.01,2013-09-30 14:25:00,
2013-09-30 10:30:00,53.5,53.5,29.99,NW,312,3.0,3.0,100,0.00,,---,0.01,VWS V14.01,2013-09-30 14:30:00,
2013-09-30 10:35:00,53.6,53.6,29.99,NW,324,1.0,5.0,100,0.00,,---,0.01,VWS V14.01,2013-09-30 14:35:00,
2013-09-30 10:40:00,53.6,53.6,29.99,NNW,331,5.0,7.0,100,0.00,,---,0.01,VWS V14.01,2013-09-30 14:40:00,
2013-09-30 10:45:00,53.9,53.9,29.98,WNW,295,5.0,7.0,100,0.00,,---,0.01,VWS V14.01,2013-09-30 14:45:00,
2013-09-30 10:50:00,54.2,54.2,29.98,NW,325,3.0,9.0,100,0.00,,---,0.01,VWS V14.01,2013-09-30 14:50:00,
2013-09-30 10:55:00,54.2,54.2,29.98,NW,318,4.0,9.0,100,0.00,,---,0.01,VWS V14.01,2013-09-30 14:55:00,
2013-09-30 11:00:00,54.5,54.5,29.98,NW,312,3.0,4.0,100,0.00,,---,0.01,VWS V14.01,2013-09-30 15:00:00,
2013-09-30 11:05:00,54.7,54.7,29.98,WNW,298,1.0,4.0,100,0.00,,---,0.01,VWS V14.01,2013-09-30 15:05:00,
2013-09-30 11:10:00,54.8,54.8,29.98,NW,313,3.0,5.0,100,0.00,,---,0.01,VWS V14.01,2013-09-30 15:10:00,
2013-09-30 11:15:00,55.1,54.8,29.98,NW,323,2.0,5.0,99,0.00,,---,0.01,VWS V14.01,2013-09-30 15:15:00,
2013-09-30 11:20:00,55.6,55.0,29.98,WNW,290,1.0,5.0,98,0.00,,---,0.01,VWS V14.01,2013-09-30 15:20:00,
2013-09-30 11:25:00,56.0,55.5,29.98,WNW,293,0.0,5.0,98,0.00,,---,0.01,VWS V14.01,2013-09-30 15:25:00,
2013-09-30 11:30:00,56.2,55.1,29.98,WNW,293,2.0,2.0,96,0.00,,---,0.01,VWS V14.01,2013-09-30 15:30:00,
2013-09-30 11:35:00,56.5,54.8,29.98,WNW,292,0.0,3.0,94,0.00,,---,0.01,VWS V14.01,2013-09-30 15:35:00,
2013-09-30 11:40:00,56.7,54.7,29.98,WNW,293,1.0,3.0,93,0.00,,---,0.01,VWS V14.01,2013-09-30 15:40:00,
2013-09-30 11:45:00,56.9,54.6,29.97,WNW,293,1.0,3.0,92,0.00,,---,0.01,VWS V14.01,2013-09-30 15:45:00,
2013-09-30 11:50:00,57.0,54.1,29.97,WNW,293,2.0,3.0,90,0.00,,---,0.01,VWS V14.01,2013-09-30 15:50:00,
2013-09-30 11:55:00,57.5,54.3,29.97,NW,325,3.0,3.0,89,0.00,,---,0.01,VWS V14.01,2013-09-30 15:55:00,
2013-09-30 12:00:00,57.8,53.7,29.97,NW,319,0.0,0.0,86,0.00,,---,0.01,VWS V14.01,2013-09-30 16:00:00,
2013-09-30 12:05:00,58.4,53.6,29.97,NNW,333,2.0,5.0,84,0.00,,---,0.01,VWS V14.01,2013-09-30 16:05:00,
2013-09-30 12:10:00,59.6,52.7,29.97,NNW,344,0.0,5.0,78,0.00,,---,0.01,VWS V14.01,2013-09-30 16:10:00,
2013-09-30 12:15:00,60.1,49.9,29.96,ESE,119,1.0,5.0,69,0.00,,---,0.01,VWS V14.01,2013-09-30 16:15:00,
2013-09-30 12:20:00,60.2,48.8,29.96,NNE,33,2.0,5.0,66,0.00,,---,0.01,VWS V14.01,2013-09-30 16:20:00,
2013-09-30 12:25:00,60.9,49.9,29.96,ENE,61,2.0,5.0,67,0.00,,---,0.01,VWS V14.01,2013-09-30 16:25:00,
2013-09-30 12:30:00,61.3,50.7,29.96,NNE,28,2.0,2.0,68,0.00,,---,0.01,VWS V14.01,2013-09-30 16:30:00,
2013-09-30 12:35:00,61.8,49.1,29.96,NNE,28,2.0,4.0,63,0.00,,---,0.01,VWS V14.01,2013-09-30 16:35:00,
2013-09-30 12:40:00,61.8,50.3,29.96,South,171,0.0,5.0,66,0.00,,---,0.01,VWS V14.01,2013-09-30 16:40:00,
2013-09-30 12:45:00,62.3,50.8,29.96,NE,54,0.0,5.0,66,0.00,,---,0.01,VWS V14.01,2013-09-30 16:45:00,
2013-09-30 12:50:00,62.6,51.5,29.96,SE,135,0.0,5.0,67,0.00,,---,0.01,VWS V14.01,2013-09-30 16:50:00,
2013-09-30 12:55:00,62.0,51.3,29.96,SSE,162,5.0,5.0,68,0.00,,---,0.01,VWS V14.01,2013-09-30 16:55:00,
2013-09-30 13:00:00,61.6,52.1,29.95,SSE,153,3.0,4.0,71,0.00,,---,0.01,VWS V14.01,2013-09-30 17:00:00,
2013-09-30 13:05:00,61.8,52.7,29.95,ESE,103,6.0,6.0,72,0.00,,---,0.01,VWS V14.01,2013-09-30 17:05:00,
2013-09-30 13:10:00,61.3,53.0,29.95,SE,125,5.0,10.0,74,0.00,,---,0.01,VWS V14.01,2013-09-30 17:10:00,
2013-09-30 13:15:00,60.7,52.7,29.95,ESE,115,3.0,10.0,75,0.00,,---,0.01,VWS V14.01,2013-09-30 17:15:00,
2013-09-30 13:20:00,61.0,53.0,29.95,South,170,1.0,10.0,75,0.00,,---,0.01,VWS V14.01,2013-09-30 17:20:00,
2013-09-30 13:25:00,61.0,53.4,29.95,SSE,157,3.0,10.0,76,0.00,,---,0.01,VWS V14.01,2013-09-30 17:25:00,
2013-09-30 13:30:00,61.2,53.6,29.95,SSE,156,2.0,2.0,76,0.00,,---,0.01,VWS V14.01,2013-09-30 17:30:00,
2013-09-30 13:35:00,61.0,53.8,29.95,ESE,113,4.0,6.0,77,0.00,,---,0.01,VWS V14.01,2013-09-30 17:35:00,
2013-09-30 13:40:00,61.0,53.4,29.95,ENE,76,2.0,6.0,76,0.00,,---,0.01,VWS V14.01,2013-09-30 17:40:00,
2013-09-30 13:45:00,60.9,53.3,29.95,South,171,3.0,6.0,76,0.00,,---,0.01,VWS V14.01,2013-09-30 17:45:00,
2013-09-30 13:50:00,61.2,53.2,29.95,SSE,152,1.0,6.0,75,0.00,,---,0.01,VWS V14.01,2013-09-30 17:50:00,
2013-09-30 13:55:00,61.6,54.0,29.95,SSW,200,0.0,6.0,76,0.00,,---,0.01,VWS V14.01,2013-09-30 17:55:00,
2013-09-30 14:00:00,61.8,53.4,29.95,SE,129,3.0,6.0,74,0.00,,---,0.01,VWS V14.01,2013-09-30 18:00:00,
2013-09-30 14:05:00,61.3,53.3,29.95,SSE,163,1.0,7.0,75,0.00,,---,0.01,VWS V14.01,2013-09-30 18:05:00,
2013-09-30 14:10:00,61.3,53.7,29.95,SE,138,4.0,7.0,76,0.00,,---,0.01,VWS V14.01,2013-09-30 18:10:00,
2013-09-30 14:15:00,61.5,53.9,29.95,East,86,3.0,7.0,76,0.00,,---,0.01,VWS V14.01,2013-09-30 18:15:00,
2013-09-30 14:20:00,61.2,53.2,29.95,SSE,167,6.0,7.0,75,0.00,,---,0.01,VWS V14.01,2013-09-30 18:20:00,
2013-09-30 14:25:00,61.2,53.6,29.95,ESE,107,2.0,7.0,76,0.00,,---,0.01,VWS V14.01,2013-09-30 18:25:00,
2013-09-30 14:30:00,61.3,53.3,29.94,ESE,105,4.0,4.0,75,0.00,,---,0.01,VWS V14.01,2013-09-30 18:30:00,
2013-09-30 14:35:00,61.5,53.5,29.94,South,184,2.0,5.0,75,0.00,,---,0.01,VWS V14.01,2013-09-30 18:35:00,
2013-09-30 14:40:00,61.5,53.2,29.94,South,169,2.0,7.0,74,0.00,,---,0.01,VWS V14.01,2013-09-30 18:40:00,
2013-09-30 14:45:00,61.3,52.6,29.93,ESE,104,3.0,7.0,73,0.00,,---,0.01,VWS V14.01,2013-09-30 18:45:00,
2013-09-30 14:50:00,61.6,52.9,29.93,South,175,0.0,7.0,73,0.00,,---,0.01,VWS V14.01,2013-09-30 18:50:00,
2013-09-30 14:55:00,61.6,52.5,29.93,SSE,164,0.0,7.0,72,0.00,,---,0.01,VWS V14.01,2013-09-30 18:55:00,
2013-09-30 15:00:00,61.5,52.8,29.93,SSE,157,5.0,6.0,73,0.00,,---,0.01,VWS V14.01,2013-09-30 19:00:00,
2013-09-30 15:05:00,61.3,52.6,29.93,SE,143,1.0,6.0,73,0.00,,---,0.01,VWS V14.01,2013-09-30 19:05:00,
2013-09-30 15:10:00,61.3,52.6,29.93,SSE,161,0.0,6.0,73,0.00,,---,0.01,VWS V14.01,2013-09-30 19:10:00,
2013-09-30 15:15:00,61.3,52.6,29.93,SSE,151,2.0,6.0,73,0.00,,---,0.01,VWS V14.01,2013-09-30 19:15:00,
2013-09-30 15:20:00,61.2,52.5,29.93,SSE,148,1.0,7.0,73,0.00,,---,0.01,VWS V14.01,2013-09-30 19:20:00,
2013-09-30 15:25:00,61.3,52.2,29.93,ESE,110,2.0,7.0,72,0.00,,---,0.01,VWS V14.01,2013-09-30 19:25:00,
2013-09-30 15:30:00,61.2,52.1,29.92,SE,128,1.0,2.0,72,0.00,,---,0.01,VWS V14.01,2013-09-30 19:30:00,
2013-09-30 15:35:00,61.2,52.5,29.92,South,177,0.0,5.0,73,0.00,,---,0.01,VWS V14.01,2013-09-30 19:35:00,
2013-09-30 15:40:00,61.2,52.5,29.92,ENE,77,2.0,5.0,73,0.00,,---,0.01,VWS V14.01,2013-09-30 19:40:00,
2013-09-30 15:45:00,61.2,52.5,29.92,SE,146,1.0,5.0,73,0.00,,---,0.01,VWS V14.01,2013-09-30 19:45:00,
2013-09-30 15:50:00,61.2,52.1,29.92,East,100,2.0,5.0,72,0.00,,---,0.01,VWS V14.01,2013-09-30 19:50:00,
2013-09-30 15:55:00,60.9,52.6,29.92,SSE,148,0.0,6.0,74,0.00,,---,0.01,VWS V14.01,2013-09-30 19:55:00,
2013-09-30 16:00:00,60.9,51.8,29.91,South,174,2.0,2.0,72,0.00,,---,0.01,VWS V14.01,2013-09-30 20:00:00,
2013-09-30 16:05:00,60.9,51.8,29.91,SSE,153,2.0,5.0,72,0.00,,---,0.01,VWS V14.01,2013-09-30 20:05:00,
2013-09-30 16:10:00,61.0,52.3,29.91,SSE,152,1.0,5.0,73,0.00,,---,0.01,VWS V14.01,2013-09-30 20:10:00,
2013-09-30 16:15:00,61.0,52.3,29.91,SSE,165,0.0,5.0,73,0.00,,---,0.01,VWS V14.01,2013-09-30 20:15:00,
2013-09-30 16:20:00,61.2,52.9,29.91,SSE,157,2.0,5.0,74,0.00,,---,0.01,VWS V14.01,2013-09-30 20:20:00,
2013-09-30 16:25:00,61.0,52.3,29.91,SSE,160,1.0,5.0,73,0.00,,---,0.01,VWS V14.01,2013-09-30 20:25:00,
2013-09-30 16:30:00,60.9,52.6,29.91,SE,142,0.0,5.0,74,0.00,,---,0.01,VWS V14.01,2013-09-30 20:30:00,
2013-09-30 16:35:00,60.9,52.6,29.91,SSE,168,0.0,5.0,74,0.00,,---,0.01,VWS V14.01,2013-09-30 20:35:00,
2013-09-30 16:40:00,60.5,52.2,29.91,ESE,120,0.0,9.0,74,0.00,,---,0.01,VWS V14.01,2013-09-30 20:40:00,
2013-09-30 16:45:00,60.4,52.5,29.90,ESE,107,0.0,9.0,75,0.00,,---,0.01,VWS V14.01,2013-09-30 20:45:00,
2013-09-30 16:50:00,60.1,52.5,29.90,South,181,2.0,9.0,76,0.00,,---,0.01,VWS V14.01,2013-09-30 20:50:00,
2013-09-30 16:55:00,60.1,52.9,29.90,SSE,161,0.0,9.0,77,0.00,,---,0.01,VWS V14.01,2013-09-30 20:55:00,
2013-09-30 17:00:00,60.1,52.9,29.91,ESE,109,1.0,9.0,77,0.00,,---,0.01,VWS V14.01,2013-09-30 21:00:00,
2013-09-30 17:05:00,60.1,52.9,29.91,SSE,148,0.0,3.0,77,0.00,,---,0.01,VWS V14.01,2013-09-30 21:05:00,
2013-09-30 17:10:00,60.1,53.2,29.91,East,88,0.0,3.0,78,0.00,,---,0.01,VWS V14.01,2013-09-30 21:10:00,
2013-09-30 17:15:00,59.8,52.9,29.91,East,85,2.0,3.0,78,0.00,,---,0.01,VWS V14.01,2013-09-30 21:15:00,
2013-09-30 17:20:00,59.6,52.7,29.91,South,171,0.0,3.0,78,0.00,,---,0.01,VWS V14.01,2013-09-30 21:20:00,
2013-09-30 17:25:00,59.6,53.1,29.91,SE,140,2.0,4.0,79,0.00,,---,0.01,VWS V14.01,2013-09-30 21:25:00,
2013-09-30 17:30:00,59.5,53.0,29.91,South,176,0.0,4.0,79,0.00,,---,0.01,VWS V14.01,2013-09-30 21:30:00,
2013-09-30 17:35:00,59.3,53.1,29.91,SE,144,0.0,4.0,80,0.00,,---,0.01,VWS V14.01,2013-09-30 21:35:00,
2013-09-30 17:40:00,59.2,53.4,29.91,SSE,157,0.0,4.0,81,0.00,,---,0.01,VWS V14.01,2013-09-30 21:40:00,
2013-09-30 17:45:00,59.2,53.4,29.91,ESE,117,0.0,4.0,81,0.00,,---,0.01,VWS V14.01,2013-09-30 21:45:00,
2013-09-30 17:50:00,59.0,53.5,29.91,ESE,121,0.0,4.0,82,0.00,,---,0.01,VWS V14.01,2013-09-30 21:50:00,
2013-09-30 17:55:00,58.9,53.8,29.91,ESE,119,0.0,4.0,83,0.00,,---,0.01,VWS V14.01,2013-09-30 21:55:00,
2013-09-30 18:00:00,58.7,53.6,29.91,SE,144,1.0,4.0,83,0.00,,---,0.01,VWS V14.01,2013-09-30 22:00:00,
2013-09-30 18:05:00,58.6,53.8,29.91,SSE,148,0.0,3.0,84,0.00,,---,0.01,VWS V14.01,2013-09-30 22:05:00,
2013-09-30 18:10:00,58.4,53.6,29.91,SSE,148,0.0,3.0,84,0.00,,---,0.01,VWS V14.01,2013-09-30 22:10:00,
2013-09-30 18:15:00,58.3,53.5,29.92,SSE,148,0.0,3.0,84,0.00,,---,0.01,VWS V14.01,2013-09-30 22:15:00,
2013-09-30 18:20:00,58.1,53.6,29.92,SSE,148,0.0,3.0,85,0.00,,---,0.01,VWS V14.01,2013-09-30 22:20:00,
2013-09-30 18:24:00,57.8,53.3,29.92,SSE,148,0.0,3.0,85,0.00,,---,0.01,VWS V14.01,2013-09-30 22:24:00,
2013-09-30 18:29:00,57.6,53.5,29.91,SSE,148,0.0,3.0,86,0.00,,---,0.01,VWS V14.01,2013-09-30 22:29:00,
2013-09-30 18:30:00,59.5,53.0,29.91,South,176,0.0,4.0,79,0.00,,---,0.01,VWS V14.01,2013-09-30 22:30:00,
2013-09-30 18:34:00,57.2,53.1,29.91,SSE,148,0.0,0.0,86,0.00,,---,0.01,VWS V14.01,2013-09-30 22:34:00,
2013-09-30 18:39:00,56.9,53.1,29.91,SSE,148,0.0,0.0,87,0.00,,---,0.01,VWS V14.01,2013-09-30 22:39:00,
2013-09-30 18:44:00,56.6,53.1,29.91,SSE,148,0.0,0.0,88,0.00,,---,0.01,VWS V14.01,2013-09-30 22:44:00,
2013-09-30 18:49:00,56.5,53.3,29.91,SSE,148,0.0,0.0,89,0.00,,---,0.01,VWS V14.01,2013-09-30 22:49:00,
2013-09-30 18:54:00,56.0,52.8,29.91,SSE,148,0.0,0.0,89,0.00,,---,0.01,VWS V14.01,2013-09-30 22:54:00,
2013-09-30 19:00:00,55.7,52.5,29.91,SSE,148,0.0,0.0,89,0.00,,---,0.01,VWS V14.01,2013-09-30 23:00:00,
2013-09-30 19:05:00,55.6,52.7,29.91,SSE,148,0.0,0.0,90,0.00,,---,0.01,VWS V14.01,2013-09-30 23:05:00,
2013-09-30 19:10:00,55.4,52.5,29.91,SSE,148,0.0,0.0,90,0.00,,---,0.01,VWS V14.01,2013-09-30 23:10:00,
2013-09-30 19:15:00,55.1,52.5,29.90,SSE,148,0.0,0.0,91,0.00,,---,0.01,VWS V14.01,2013-09-30 23:15:00,
2013-09-30 19:20:00,54.8,52.2,29.90,SSE,148,0.0,0.0,91,0.00,,---,0.01,VWS V14.01,2013-09-30 23:20:00,
2013-09-30 19:25:00,54.8,52.5,29.90,SSE,148,0.0,0.0,92,0.00,,---,0.01,VWS V14.01,2013-09-30 23:25:00,
2013-09-30 19:30:00,54.7,52.4,29.90,SSE,148,0.0,0.0,92,0.00,,---,0.01,VWS V14.01,2013-09-30 23:30:00,
2013-09-30 19:34:00,54.2,51.9,29.90,SSE,148,0.0,0.0,92,0.00,,---,0.01,VWS V14.01,2013-09-30 23:34:00,
2013-09-30 19:39:00,54.2,52.2,29.90,SSE,148,0.0,0.0,93,0.00,,---,0.01,VWS V14.01,2013-09-30 23:39:00,
2013-09-30 19:44:00,53.9,51.9,29.90,SSE,148,0.0,0.0,93,0.00,,---,0.01,VWS V14.01,2013-09-30 23:44:00,
2013-09-30 19:49:00,53.6,51.6,29.90,SSE,148,0.0,0.0,93,0.00,,---,0.01,VWS V14.01,2013-09-30 23:49:00,
2013-09-30 19:54:00,53.9,52.2,29.90,SSE,148,0.0,0.0,94,0.00,,---,0.01,VWS V14.01,2013-09-30 23:54:00,
2013-09-30 19:59:00,54.1,52.4,29.90,SSE,148,0.0,0.0,94,0.00,,---,0.01,VWS V14.01,2013-09-30 23:59:00,
2013-09-30 20:00:00,55.7,52.5,29.91,SSE,148,0.0,0.0,89,0.00,,---,0.01,VWS V14.01,2013-10-01 00:00:00,
2013-09-30 20:04:00,54.4,53.0,29.90,SSE,148,0.0,0.0,95,0.00,,---,0.01,VWS V14.01,2013-10-01 00:04:00,
2013-09-30 20:09:00,54.5,53.4,29.90,SSE,148,0.0,0.0,96,0.00,,---,0.01,VWS V14.01,2013-10-01 00:09:00,
2013-09-30 20:14:00,54.5,53.4,29.90,SSE,148,0.0,0.0,96,0.00,,---,0.01,VWS V14.01,2013-10-01 00:14:00,
2013-09-30 20:19:00,54.5,53.4,29.90,SSE,148,0.0,0.0,96,0.00,,---,0.01,VWS V14.01,2013-10-01 00:19:00,
2013-09-30 20:24:00,54.5,53.4,29.90,SSE,148,0.0,0.0,96,0.00,,---,0.01,VWS V14.01,2013-10-01 00:24:00,
2013-09-30 20:29:00,54.5,53.4,29.90,SSE,148,0.0,0.0,96,0.00,,---,0.01,VWS V14.01,2013-10-01 00:29:00,
2013-09-30 20:30:00,54.5,52.2,29.90,SSE,148,0.0,0.0,92,0.00,,---,0.01,VWS V14.01,2013-10-01 00:30:00,
2013-09-30 20:34:00,54.5,53.4,29.90,SSE,148,0.0,0.0,96,0.00,,---,0.01,VWS V14.01,2013-10-01 00:34:00,
2013-09-30 20:39:00,54.2,53.1,29.90,SSE,148,0.0,0.0,96,0.00,,---,0.01,VWS V14.01,2013-10-01 00:39:00,
2013-09-30 20:44:00,53.8,52.7,29.90,SSE,148,0.0,0.0,96,0.00,,---,0.01,VWS V14.01,2013-10-01 00:44:00,
2013-09-30 20:49:00,53.3,52.2,29.90,SSE,148,0.0,0.0,96,0.00,,---,0.01,VWS V14.01,2013-10-01 00:49:00,
2013-09-30 20:54:00,53.9,53.1,29.90,SSE,148,0.0,0.0,97,0.00,,---,0.01,VWS V14.01,2013-10-01 00:54:00,
2013-09-30 20:59:00,53.9,53.1,29.90,SSE,148,0.0,0.0,97,0.00,,---,0.01,VWS V14.01,2013-10-01 00:59:00,
2013-09-30 21:00:00,54.1,52.4,29.90,SSE,148,0.0,0.0,94,0.00,,---,0.01,VWS V14.01,2013-10-01 01:00:00,
2013-09-30 21:04:00,53.9,53.1,29.90,SSE,148,0.0,0.0,97,0.00,,---,0.01,VWS V14.01,2013-10-01 01:04:00,
2013-09-30 21:09:00,54.1,53.5,29.90,SSE,148,0.0,0.0,98,0.00,,---,0.01,VWS V14.01,2013-10-01 01:09:00,
2013-09-30 21:14:00,54.1,53.5,29.90,SW,232,3.0,3.0,98,0.00,,---,0.01,VWS V14.01,2013-10-01 01:14:00,
2013-09-30 21:19:00,54.5,54.0,29.90,SW,234,0.0,3.0,98,0.00,,---,0.01,VWS V14.01,2013-10-01 01:19:00,
2013-09-30 21:24:00,54.4,53.8,29.90,SW,234,0.0,3.0,98,0.00,,---,0.01,VWS V14.01,2013-10-01 01:24:00,
2013-09-30 21:29:00,54.1,53.3,29.89,SW,234,0.0,3.0,97,0.00,,---,0.01,VWS V14.01,2013-10-01 01:29:00,
2013-09-30 21:30:00,54.5,53.4,29.90,SSE,148,0.0,0.0,96,0.00,,---,0.01,VWS V14.01,2013-10-01 01:30:00,
2013-09-30 21:34:00,53.9,53.3,29.89,WSW,239,0.0,1.0,98,0.00,,---,0.01,VWS V14.01,2013-10-01 01:34:00,
2013-09-30 21:39:00,53.9,53.3,29.89,WSW,239,0.0,1.0,98,0.00,,---,0.01,VWS V14.01,2013-10-01 01:39:00,
2013-09-30 21:44:00,53.9,53.3,29.90,WSW,239,0.0,1.0,98,0.00,,---,0.01,VWS V14.01,2013-10-01 01:44:00,
2013-09-30 21:49:00,54.1,53.5,29.90,WSW,239,0.0,1.0,98,0.00,,---,0.01,VWS V14.01,2013-10-01 01:49:00,
2013-09-30 21:54:00,54.1,53.5,29.90,WSW,239,0.0,1.0,98,0.00,,---,0.01,VWS V14.01,2013-10-01 01:54:00,
2013-09-30 21:59:00,54.2,53.7,29.90,WSW,239,0.0,1.0,98,0.00,,---,0.01,VWS V14.01,2013-10-01 01:59:00,
2013-09-30 22:00:00,53.8,53.0,29.90,SSE,148,0.0,0.0,97,0.00,,---,0.01,VWS V14.01,2013-10-01 02:00:00,
2013-09-30 22:04:00,54.2,53.7,29.90,WSW,239,0.0,1.0,98,0.00,,---,0.01,VWS V14.01,2013-10-01 02:04:00,
2013-09-30 22:09:00,53.5,52.7,29.90,WSW,239,1.0,1.0,97,0.00,,---,0.01,VWS V14.01,2013-10-01 02:09:00,
2013-09-30 22:14:00,53.5,53.0,29.90,WSW,239,0.0,2.0,98,0.00,,---,0.01,VWS V14.01,2013-10-01 02:14:00,
2013-09-30 22:19:00,53.8,53.2,29.90,WSW,239,0.0,2.0,98,0.00,,---,0.01,VWS V14.01,2013-10-01 02:19:00,
2013-09-30 22:24:00,53.9,53.3,29.90,WSW,239,0.0,2.0,98,0.00,,---,0.01,VWS V14.01,2013-10-01 02:24:00,
2013-09-30 22:29:00,53.9,53.3,29.90,WSW,239,0.0,2.0,98,0.00,,---,0.01,VWS V14.01,2013-10-01 02:29:00,
2013-09-30 22:30:00,54.1,53.3,29.89,WSW,239,1.0,3.0,97,0.00,,---,0.01,VWS V14.01,2013-10-01 02:30:00,
2013-09-30 22:34:00,53.9,53.3,29.90,WSW,239,0.0,1.0,98,0.00,,---,0.01,VWS V14.01,2013-10-01 02:34:00,
2013-09-30 22:39:00,53.8,53.2,29.90,WSW,239,0.0,1.0,98,0.00,,---,0.01,VWS V14.01,2013-10-01 02:39:00,
2013-09-30 22:44:00,53.8,53.2,29.89,WSW,240,0.0,1.0,98,0.00,,---,0.01,VWS V14.01,2013-10-01 02:44:00,
2013-09-30 22:49:00,53.8,53.5,29.89,WSW,239,0.0,1.0,99,0.00,,---,0.01,VWS V14.01,2013-10-01 02:49:00,
2013-09-30 22:54:00,53.6,53.0,29.89,WSW,239,0.0,1.0,98,0.00,,---,0.01,VWS V14.01,2013-10-01 02:54:00,
2013-09-30 22:59:00,53.6,53.3,29.89,WSW,239,0.0,1.0,99,0.00,,---,0.01,VWS V14.01,2013-10-01 02:59:00,
2013-09-30 23:00:00,54.2,53.7,29.90,WSW,239,0.0,1.0,98,0.00,,---,0.01,VWS V14.01,2013-10-01 03:00:00,
2013-09-30 23:04:00,52.8,52.2,29.89,WSW,239,0.0,1.0,98,0.00,,---,0.01,VWS V14.01,2013-10-01 03:04:00,
2013-09-30 23:09:00,52.8,52.2,29.89,WSW,239,0.0,1.0,98,0.00,,---,0.01,VWS V14.01,2013-10-01 03:09:00,
2013-09-30 23:14:00,53.2,52.9,29.89,WSW,239,0.0,1.0,99,0.00,,---,0.01,VWS V14.01,2013-10-01 03:14:00,
2013-09-30 23:19:00,53.3,53.0,29.89,WSW,239,0.0,1.0,99,0.00,,---,0.01,VWS V14.01,2013-10-01 03:19:00,
2013-09-30 23:24:00,53.3,53.0,29.89,WSW,239,0.0,1.0,99,0.00,,---,0.01,VWS V14.01,2013-10-01 03:24:00,
2013-09-30 23:29:00,53.2,52.9,29.89,WSW,239,0.0,1.0,99,0.00,,---,0.01,VWS V14.01,2013-10-01 03:29:00,
2013-09-30 23:30:00,53.9,53.3,29.90,WSW,239,0.0,2.0,98,0.00,,---,0.01,VWS V14.01,2013-10-01 03:30:00,
2013-09-30 23:34:00,53.3,53.0,29.89,WSW,239,0.0,1.0,99,0.00,,---,0.01,VWS V14.01,2013-10-01 03:34:00,
2013-09-30 23:39:00,53.3,53.0,29.89,WSW,239,0.0,1.0,99,0.00,,---,0.01,VWS V14.01,2013-10-01 03:39:00,
2013-09-30 23:44:00,53.3,53.0,29.89,WSW,239,0.0,1.0,99,0.00,,---,0.01,VWS V14.01,2013-10-01 03:44:00,
2013-09-30 23:49:00,53.6,53.3,29.89,WSW,239,0.0,1.0,99,0.00,,---,0.01,VWS V14.01,2013-10-01 03:49:00,
2013-09-30 23:54:00,53.5,53.2,29.89,WSW,239,1.0,3.0,99,0.00,,---,0.01,VWS V14.01,2013-10-01 03:54:00,
2013-09-30 23:59:00,53.6,53.3,29.89,WSW,239,0.0,3.0,99,0.00,,---,0.01,VWS V14.01,2013-10-01 03:59:00,